Regional Weather Roundup
Issued by NWS Burlington, VT

Home | Current Version | Previous Version | Text Only | Print | Product List | Glossary On
Versions: 1 2 3 4 5 6 7 8 9 10 11 12 13 14 15 16 17 18 19 20 21 22 23 24 25 26 27 28 29 30 31 32 33 34 35 36 37 38 39 40 41 42 43 44 45 46 47 48 49 50
000
ASUS41 KBTV 210630
RWRBTV
VERMONT REGIONAL WEATHER ROUNDUP
NATIONAL WEATHER SERVICE BURLINGTON VT
200 AM EDT TUE APR 21 2015

NOTE: "FAIR" INDICATES FEW OR NO CLOUDS BELOW 12,000 FEET WITH NO
SIGNIFICANT WEATHER AND/OR OBSTRUCTIONS TO VISIBILITY.

* THESE REPORTS ARE NOT UNDER NWS QUALITY CONTROL AND/OR DO NOT
  REPORT WEATHER SUCH AS PRECIPITATION AND FOG.

VTZ001>019-210700-
_____VERMONT_____


CITY           SKY/WX    TMP DP  RH WIND       PRES   REMARKS
BURLINGTON     CLOUDY    52  41  66 SE13      29.59F
6HR MIN TEMP:  51; 6HR MAX TEMP:  53;

MONTPELIER     CLOUDY    44  42  93 SW3       29.71F
6HR MIN TEMP:  43; 6HR MAX TEMP:  45;

MORRISVILLE    CLOUDY    46  42  86 S3        29.68F
6HR MIN TEMP:  45; 6HR MAX TEMP:  48;

ST. JOHNSBURY*   N/A     49  40  71 MISG      29.68F
6HR MIN TEMP:  46; 6HR MAX TEMP:  49;

LYNDONVILLE*   CLOUDY    50  36  59 E12G22    29.69F
6HR MIN TEMP:  45; 6HR MAX TEMP:  49;

MIDDLEBURY*    CLOUDY    50  42  74 SE23G32   29.56F
6HR MIN TEMP:  48; 6HR MAX TEMP:  50;

RUTLAND*       MOCLDY    46  43  87 S13G23    29.60F
SPRINGFIELD    LGT RAIN  46  44  93 CALM      29.66F FOG
6HR MIN TEMP:  43; 6HR MAX TEMP:  46; 6HR PCP:  0.10;

HIGHGATE*      CLOUDY    51  43  73 SE7       29.59F
6HR MIN TEMP:  50; 6HR MAX TEMP:  53;

NEWPORT*       CLOUDY    48  39  70 E12G22    29.67F
6HR MIN TEMP:  45; 6HR MAX TEMP:  49;

BENNINGTON     CLOUDY    53  45  74 E9        29.54F
6HR MIN TEMP:  50; 6HR MAX TEMP:  53;

GALLUP MILLS*    N/A     45 N/A N/A MISG        N/A
MT. MANSFIELD*   N/A     36 N/A N/A CALM        N/A

_____LAKE CHAMPLAIN_____


CITY           SKY/WX    TMP DP  RH WIND       PRES   REMARKS
BURTON ISLAND*   N/A     50  41  71 S14         N/A
COLCHESTER RF*   N/A     48  41  76 S15         N/A
DIAMOND ISL*     N/A     50  43  76 SW10        N/A

$$

NYZ007-026>031-035-052-083-210700-
_____NORTHERN NEW YORK_____


CITY           SKY/WX    TMP DP  RH WIND       PRES   REMARKS
PLATTSBURGH    CLOUDY    46  41  82 SE8       29.59F
6HR MIN TEMP:  45; 6HR MAX TEMP:  51;

SARANAC LAKE   RAIN      49  46  90 S9        29.56R FOG
6HR MIN TEMP:  47; 6HR MAX TEMP:  52; 6HR PCP:  0.04;

MASSENA        LGT RAIN  48  46  93 NE7       29.54F
6HR MIN TEMP:  48; 6HR MAX TEMP:  56; 6HR PCP:  0.22;

OGDENSBURG*    LGT RAIN  52  52 100 CALM      29.50F
POTSDAM*       LGT RAIN  52  50  93 S6        29.52F
STARK FALLS*     N/A     45 N/A N/A SE16        N/A
WATERTOWN      CLOUDY    54  50  86 SW8G20    29.53F
6HR MIN TEMP:  52; 6HR MAX TEMP:  59; 6HR PCP:  0.16;

FT DRUM        CLOUDY    52  52 100 S9        29.53R
6HR MIN TEMP:  51; 6HR MAX TEMP:  54; 6HR PCP:  0.22;

ALBANY         TSTM      51  49  92 N6        29.60R FOG
6HR MIN TEMP:  52; 6HR MAX TEMP:  54; 6HR PCP:  0.03;

GLENS FALLS    CLOUDY    49  44  83 N6        29.57F
6HR MIN TEMP:  48; 6HR MAX TEMP:  50;


$$
NHZ002-005-011-210700-
_____NEW HAMPSHIRE_____


CITY           SKY/WX    TMP DP  RH WIND       PRES   REMARKS
LEBANON        LGT RAIN  47  43  86 NE3       29.68F
6HR MIN TEMP:  45; 6HR MAX TEMP:  48; 6HR PCP:  0.01;

KEENE          CLOUDY    46  45  93 N6        29.63F
6HR MIN TEMP:  46; 6HR MAX TEMP:  48; 6HR PCP:  0.03;

MT WASHINGTON  FRZ RAIN  28  28 100 SE40G56     N/A  VSB 0   WCI  11
6HR MIN TEMP:  26; 6HR MAX TEMP:  30; 6HR PCP:  0.27;

PLYMOUTH       DRIZZLE   46  46 100 SE3       29.73F
6HR MIN TEMP:  41; 6HR MAX TEMP:  45; 6HR PCP:  0.19;

WHITEFIELD     CLOUDY    52  38  58 E18G35    29.72F
6HR MIN TEMP:  44; 6HR MAX TEMP:  52; 6HR PCP: TRACE;


$$

_____REGIONAL QUEBEC LOCATIONS_____


CITY           SKY/WX    TMP DP  RH WIND       PRES   REMARKS
MONTREAL       MOCLDY    50  43  76 SE8       29.60F
QUEBEC CITY    LGT RAIN  41  37  87 E15G23    29.82S
SHERBROOKE     CLOUDY    48  39  71 SE21G26   29.71F

_____REGIONAL ONTARIO LOCATIONS_____


CITY           SKY/WX    TMP DP  RH WIND       PRES   REMARKS
OTTAWA         LGT RAIN  46  45  93 E10       29.52F

______KEY______
VSB  - VISIBILITY IN MILES
WCI  - WIND CHILL INDEX
HX   - HEAT INDEX
$$
NNNN


USA.gov is the U.S. government's official web portal to all federal, state and local government web resources and services.